Meteo Giornale » Osservazioni meteo Francia » Grenoble-St Geoirs

ore: 19:30 - Osservazioni Meteo Grenoble-St Geoirs
Lat. 45° 22' N Lon. 5° 20' E Alt. 384 metri s.l.m.

sereno Europe/Paris

28 °C

Sereno

Temp. 24 Ore

16 °C

29 °C

Sud/Sud-Ovest

14.8 Km/h

Dew point 18 °C

Umidità 54 %

Visibilità  9 Km

Il sole sorge alle ore 05:48

Il sole tramonta alle ore 21:31

Data e Ora Cielo e Fenomeni T °C DP °C Um. % Pres. hPa Vis. km Vento km/h
Oggi h: 19:30 sereno Sereno 28 18 54 1015 9 S/SO 14.8
Oggi h: 19:00 sereno Sereno 28 18 54 1015 8 SO 18.5
Oggi h: 18:30 sereno Sereno 29 17 48 1015 7 S/SO 16.7
Oggi h: 18:00 sereno Sereno 28 18 54 1015 3 SO 16.7
Oggi h: 17:30 poco_nuvoloso Poco Nuvoloso 28 17 51 1016 3 SO 22.2
Oggi h: 17:00 poco_nuvoloso Poco Nuvoloso 29 18 51 1016 3 S/SO 22.2
Oggi h: 16:30 poco_nuvoloso Poco Nuvoloso 29 18 51 1016 7 S/SO 24
Oggi h: 16:00 poco_nuvoloso Poco Nuvoloso 29 17 48 1016 7 SO 24
Oggi h: 15:30 sereno Sereno 29 17 48 1016 7 S/SO 24
Oggi h: 15:00 poco_nuvoloso Poco Nuvoloso 29 17 48 1016 8 SO 18.5
Oggi h: 14:30 sereno Sereno 28 17 51 1016 7 SO 22.2
Oggi h: 14:00 poco_nuvoloso Poco Nuvoloso 28 16 48 1016 7 SO 16.7
Oggi h: 13:30 sereno Sereno 28 16 48 1016 8 S/SO 14.8
Oggi h: 13:00 sereno Sereno 27 16 50 1016 9 SO 16.7
Oggi h: 12:30 sereno Sereno 27 16 50 1016 10 SO 13
Oggi h: 12:00 sereno Sereno 26 15 50 1016 9 S/SO 14.8
Oggi h: 11:30 sereno Sereno 26 15 50 1016 9 SO 20.3
Oggi h: 11:00 sereno Sereno 26 14 47 1016 10 SO 18.5
Oggi h: 10:30 sereno Sereno 25 14 50 1016 10 S/SO 14.8
Oggi h: 10:00 sereno Sereno 25 14 50 1016 10 O/SO 14.8
Oggi h: 09:30 sereno Sereno 25 14 50 1016 10 N 9.3
Oggi h: 09:00 sereno Sereno 24 14 53 1016 10 S 7.4
Oggi h: 08:30 sereno Sereno 23 14 56 1015 10 N 5.5
Oggi h: 08:00 sereno Sereno 21 18 82 1015 10 E 11.1
Oggi h: 07:30 sereno Sereno 19 16 82 1015 10 E/SE 11.1
Oggi h: 07:00 sereno Sereno 17 15 88 1015 10 E/NE 7.4
Oggi h: 06:30 sereno Sereno 16 15 93 1014 10 E/NE 7.4
Oggi h: 06:00 sereno Sereno 17 15 88 1014 10 E 11.1
Oggi h: 05:30 sereno Sereno 17 15 88 1014 10 E 9.3
Oggi h: 04:30 sereno Sereno 18 16 88 1014 10 N 5.5
Oggi h: 04:00 sereno Sereno 18 16 88 1014 10 E 7.4
Oggi h: 03:30 sereno Sereno 18 16 88 1014 10 N 5.5
Oggi h: 03:00 sereno Sereno 19 16 82 1014 10 N 5.5
Oggi h: 02:30 sereno Sereno 19 16 82 1014 10 E 11.1
Oggi h: 02:00 sereno Sereno 19 16 82 1015 10 E 11.1
Oggi h: 01:30 sereno Sereno 19 16 82 1015 10 E 7.4
Oggi h: 00:30 sereno Sereno 20 16 77 1015 10 N 5.5
Oggi h: 00:00 sereno Sereno 22 16 68 1014 10 SE 9.3
Ieri h: 23:30 sereno Sereno 21 16 73 1014 10 N 5.5
Ieri h: 23:00 sereno Sereno 21 16 73 1014 10 NE 9.3
Ieri h: 22:30 sereno Sereno 23 17 68 1014 10 N 3.7
Ieri h: 22:00 sereno Sereno 24 17 64 1014 10 N 5.5
Ieri h: 21:30 sereno Sereno 24 17 64 1014 10 S/SO 7.4
Ieri h: 21:00 sereno Sereno 25 17 61 1013 10 S 7.4